Location: Grovedale
(55.0253°N, 118.8649°W)
Time: 16:38:49
(UTC+00:00)

Envisat - Visible Passes

Search period start: 02 December 2021 00:00
Search period end: 12 December 2021 00:00
Orbit: 764 x 766 km, 98.2° (Epoch: 02 December)

Date Brightness Start Highest point End Pass type
(mag) Time Alt. Az. Time Alt. Az. Time Alt. Az.
02 Dec 5.9 01:27:17 10° SW 01:30:38 17° W 01:34:00 10° NW visible
02 Dec 5.5 11:48:03 10° NE 11:51:44 20° E 11:55:23 10° SE visible
02 Dec 2.9 13:26:16 10° NNE 13:31:23 81° WNW 13:36:29 10° SSW visible
02 Dec 4.3 15:06:14 10° N 15:09:44 19° NW 15:13:13 10° W visible
03 Dec 5.0 00:48:49 10° SSW 00:53:20 32° W 00:57:54 10° NNW visible
03 Dec 6.2 11:14:01 10° ENE 11:14:15 10° E 11:14:29 10° E visible
03 Dec 3.6 12:49:26 10° NNE 12:54:27 55° E 12:59:26 10° S visible
03 Dec 3.7 14:28:50 10° N 14:33:16 31° WNW 14:37:41 10° WSW visible
04 Dec 3.8 00:11:13 10° S 00:16:14 59° W 00:21:17 10° NNW visible
04 Dec 6.2 01:55:02 10° W 01:56:22 11° W 01:57:43 10° WNW visible
04 Dec 4.8 12:12:52 10° NNE 12:17:20 30° E 12:21:46 10° SSE visible
04 Dec 3.1 13:51:40 10° N 13:56:38 54° WNW 14:01:34 10° SW visible
05 Dec 5.7 01:15:07 10° SW 01:18:55 21° W 01:22:45 10° NW visible
05 Dec 5.7 11:36:51 10° NE 11:40:01 16° E 11:43:09 10° ESE visible
05 Dec 3.0 13:14:42 10° NNE 13:19:50 84° ESE 13:24:56 10° SSW visible
05 Dec 4.1 14:54:29 10° N 14:58:19 22° NW 15:02:08 10° WSW visible
06 Dec 4.6 00:36:58 10° SSW 00:41:41 38° W 00:46:27 10° NNW visible
06 Dec 4.0 12:37:56 10° NNE 12:42:50 45° E 12:47:43 10° S visible
06 Dec 3.5 14:17:10 10° N 14:21:48 36° WNW 14:26:25 10° SW visible
07 Dec 6.0 01:42:08 10° WSW 01:44:37 14° W 01:47:07 10° NW visible
07 Dec 5.1 12:01:29 10° NE 12:05:40 25° E 12:09:48 10° SE visible
07 Dec 2.9 13:40:04 10° N 13:45:07 65° WNW 13:50:09 10° SSW visible
07 Dec 4.5 15:20:19 10° NNW 15:23:16 16° NW 15:26:13 10° W visible
08 Dec 5.4 01:03:03 10° SW 01:07:14 25° W 01:11:25 10° NW visible
08 Dec 5.9 11:25:50 10° NE 11:28:16 13° E 11:30:42 10° ESE visible
08 Dec 3.2 13:03:08 10° NNE 13:08:15 70° ESE 13:13:19 10° S visible
08 Dec 3.9 14:42:45 10° N 14:46:53 25° NW 14:50:59 10° WSW visible
09 Dec 4.2 00:25:10 10° S 00:30:03 46° W 00:34:58 10° NNW visible
09 Dec 4.4 12:26:27 10° NNE 12:31:12 38° E 12:35:55 10° SSE visible
09 Dec 3.3 14:05:31 10° N 14:10:19 43° WNW 14:15:06 10° SW visible
10 Dec 5.9 01:29:42 10° SW 01:32:52 16° W 01:36:04 10° NW visible
10 Dec 5.4 11:50:10 10° NE 11:53:57 21° E 11:57:44 10° SE visible
10 Dec 2.8 13:28:28 10° NNE 13:33:35 77° WNW 13:38:39 10° SSW visible
10 Dec 4.3 15:08:30 10° N 15:11:53 18° NW 15:15:15 10° W visible
11 Dec 5.1 00:51:06 10° SSW 00:55:33 30° W 01:00:02 10° NNW visible
11 Dec 6.1 11:15:17 10° ENE 11:16:30 11° E 11:17:43 10° E visible
11 Dec 3.5 12:51:36 10° NNE 12:56:39 58° E 13:01:40 10° S visible
11 Dec 3.7 14:31:04 10° N 14:35:26 30° WNW 14:39:47 10° WSW visible
